{"data":{"norad_id":66375,"epoch":"2026-09-20T15:41:05.068032Z","epoch_age_seconds":80105,"freshness":"FRESH","line1":"1 66375U 25254AD  26263.65353088  .00013353  00000+0  40541-3 0  9993","line2":"2 66375  53.1620  42.6965 0000995  86.5945 273.5171 15.34417975 48888","mean_motion":15.34417975,"eccentricity":9.95e-5,"inclination_deg":53.162,"raan_deg":42.6965,"arg_perigee_deg":86.5945,"mean_anomaly_deg":273.5171,"bstar":0.00040541,"rev_number":4888,"period_min":93.846658698064,"perigee_km":461.96915695248,"apogee_km":463.33047352871,"semimajor_km":6840.7868152406,"source":"CELESTRAK","updated_at":"2026-09-21T09:00:35.884721Z"}}